Location: Poughquag
(41.6090°N, 73.6820°W)
Time: 12:15:11
(UTC-04:00)

Transit 2A - Pass Details

Date: 05 June 2020
Orbit: 592 x 967 km, 66.7° (Epoch: 06 July)

Event Time Altitude Azimuth Distance (km) Brightness Sun altitude
Rises 11:49:44 0° 178° (S) 2,991 9.3 66.8°
Reaches altitude 10° 11:52:11 10° 166° (SSE) 2,137 8.8 67.1°
Maximum altitude 11:56:20 28° 108° (ESE) 1,350 8.1 67.6°
Drops below altitude 10° 12:00:52 10° 50° (NE) 2,360 8.7 68.1°
Sets 12:03:42 0° 40° (NE) 3,364 9.3 68.4°
